Location: Kuppenheim
(48.8299°N, 8.2568°E)
Time: 14:30:17
(UTC+00:00)

MSX - Pass Details

Date: 20 June 2021
Orbit: 894 x 907 km, 98.8° (Epoch: 04 August)

Event Time Altitude Azimuth Distance (km) Brightness Sun altitude
Rises 02:09:59 0° 17° (NNE) 3,542 8.5 -9.3°
Reaches altitude 10° 02:12:27 10° 22° (NNE) 2,594 7.7 -9.0°
Maximum altitude 02:18:10 59° 101° (E) 1,040 4.4 -8.4°
Drops below altitude 10° 02:23:48 10° 181° (S) 2,568 5.8 -7.8°
Enters shadow 02:25:41 - 184° (S) 3,287 6.3 -7.6°
